Agadir Al Massira, Morocco

9:49 AM WEST on August 20, 2017 (GMT +0100)
Agadir Al Massira

Weather History for GMAD - April, 2014

Change the Weather History Date:

Tuesday, April 8, 2014

  Actual Average Record
Temperature  
Mean Temperature 78 °F -  
Max Temperature 96 °F - - ()
Min Temperature 59 °F - - ()
Cooling Degree Days 12    
Growing Degree Days 28 (Base 50)    
Moisture  
Dew Point 51 °F    
Average Humidity 48    
Maximum Humidity 88    
Minimum Humidity 5    
Precipitation  
Precipitation 0.00 in - - ()
Sea Level Pressure  
Sea Level Pressure 29.94 in    
Wind  
Wind Speed 8 mph ()    
Max Wind Speed 15 mph    
Max Gust Speed -    
Visibility 6.1 miles    
Events      
T = Trace of Precipitation, MM = Missing Value Source: Averaged Metar Reports

Daily Weather History Graph

Daily Weather History Graph

Search for Another Location

Airport or City:

Trip Planner

Search our weather history database for the weather conditions in past years. The results will help you decide how hot, cold, wet, or windy it might be!

Date:

Astronomy

Apr. 08, 2014 Rise Set
Actual Time 7:18 AM WEST 8:00 PM WEST
Civil Twilight 6:54 AM WEST 8:25 PM WEST
Nautical Twilight 6:25 AM WEST 8:53 PM WEST
Astronomical Twilight 5:56 AM WEST 9:23 PM WEST
Moon 2:06 PM WEST (4/8) 2:58 AM WEST (4/8)
Length of Visible Light 13h 30m
Length of Day
12h 42m
First Quarter, 60% of the Moon is Illuminated
Apr 8
First Quarter
Apr 15
Full
Apr 22
Last Quarter
Apr 29
New
May 7
First Quarter

Hourly Weather History & Observations

Time (WEST) Temp. Heat Index Dew Point Humidity Pressure Visibility Wind Dir Wind Speed Gust Speed Precip Events Conditions
12:00 AM 60.8 °F - 57.2 °F 88% 29.95 in - ENE 10.4 mph - N/A   Clear
1:00 AM 64 °F - 58 °F 73% 29.93 in 6 mi ENE 12.7 mph - -  
1:00 AM 64.4 °F - 57.2 °F 77% 29.92 in - ENE 12.7 mph - N/A   Clear
2:00 AM 66.2 °F - 53.6 °F 64% 29.92 in 6.2 mi East 9.2 mph - N/A   Unknown
3:00 AM 68.0 °F - 51.8 °F 56% 29.89 in 6.2 mi East 10.4 mph - N/A   Unknown
4:00 AM 67 °F - 50 °F 43% 29.90 in 6 mi NE 11.5 mph - -  
4:00 AM 66.2 °F - 50.0 °F 56% 29.89 in 6.2 mi NE 11.5 mph - N/A   Unknown
5:00 AM 66.2 °F - 48.2 °F 52% 29.89 in 6.2 mi NE 11.5 mph - N/A   Unknown
6:00 AM 66.2 °F - 44.6 °F 46% 29.89 in - ENE 9.2 mph - N/A   Clear
7:00 AM 66 °F - 46 °F 36% 29.92 in 6 mi East 9.2 mph - -  
7:00 AM 66.2 °F - 46.4 °F 49% 29.92 in - East 9.2 mph - N/A   Clear
8:00 AM 66.2 °F - 46.4 °F 49% 29.95 in 6.2 mi East 8.1 mph - N/A   Unknown
8:36 AM 65 °F - 53 °F 55% 29.98 in 6 mi NNW 1.2 mph - -  
9:00 AM 68.0 °F - 53.6 °F 60% 29.98 in 6.2 mi NW 3.5 mph - N/A   Unknown
10:00 AM 77 °F - 44 °F 20% 29.97 in 6 mi ENE 10.4 mph - -   Clear
10:00 AM 77.0 °F - 44.6 °F 32% 29.98 in - ENE 10.4 mph - N/A   Clear
11:00 AM 82.4 °F - 46.4 °F 28% 29.98 in - ENE 5.8 mph - N/A   Clear
12:00 PM 91.4 °F - 39.2 °F 16% 29.98 in - East 4.6 mph - N/A   Clear
1:00 PM 95 °F - 32 °F 5% 29.96 in 6 mi South 2.3 mph - -   Clear
1:00 PM 95.0 °F - 33.8 °F 12% 29.98 in - Variable 1.2 mph - N/A   Clear
2:00 PM 86.0 °F 84.9 °F 57.2 °F 37% 29.95 in - West 12.7 mph - N/A   Clear
3:00 PM 77.0 °F - 57.2 °F 50% 29.95 in - West 15.0 mph - N/A   Clear
4:00 PM 79 °F - 57 °F 36% 29.93 in 6 mi West 10.4 mph - -   Clear
4:00 PM 78.8 °F - 57.2 °F 47% 29.92 in - West 10.4 mph - N/A   Clear
6:00 PM 82.4 °F 81.4 °F 53.6 °F 37% 29.92 in - West 8.1 mph - N/A   Clear
7:00 PM 77 °F - 59 °F 43% 29.91 in 6 mi West 6.9 mph - -   Clear
7:00 PM 77.0 °F - 59.0 °F 54% 29.92 in - West 6.9 mph - N/A   Clear
8:00 PM 73.4 °F - 57.2 °F 57% 29.92 in - Variable 2.3 mph - N/A   Clear
9:00 PM 71.6 °F - 59.0 °F 64% 29.92 in - SSW 2.3 mph - N/A   Clear
10:00 PM 67 °F - 59 °F 68% 29.96 in 6 mi NNW 4.6 mph - -   Clear
10:00 PM 68.0 °F - 59.0 °F 73% 29.95 in - NNW 4.6 mph - N/A   Clear